GW2344 Weather Reports


Display with metric or nautical units.
time (UTC)temp
F
wind
direction
speed
MPH
gust
MPH
rain 1hr
in
rain 24hr
in
rain mn
in
humidity
%
barometer
mb
20260507212914 75 239 2.0 5.0 0.00 0.00 0.00 35 1012.2
20260507212409 73 209 3.0 3.0 0.00 0.00 0.00 31 1012.5
20260507211906 72 359 2.0 2.0 0.00 0.00 0.00 34 1012.3
20260507211403 73 67 1.0 1.0 0.00 0.00 0.00 33 1012.6
20260507210900 71 64 1.0 1.0 0.00 0.00 0.00 36 1012.5
20260507210356 72 221 3.0 5.0 0.00 0.00 0.00 35 1012.3
20260507205853 72 104 4.0 5.0 0.00 0.00 0.00 34 1012.5
20260507205350 71 92 5.0 7.0 0.00 0.00 0.00 36 1012.6
20260507204846 69 50 5.0 6.0 0.00 0.00 0.00 36 1012.4
20260507204343 70 39 6.0 8.0 0.00 0.00 0.00 38 1012.5
20260507203841 71 73 4.0 5.0 0.00 0.00 0.00 38 1012.5
20260507203339 75 37 3.0 3.0 0.00 0.00 0.00 33 1012.6
20260507202835 73 70 1.0 1.0 0.00 0.00 0.00 36 1012.6
20260507202331 72 246 5.0 7.0 0.00 0.00 0.00 35 1012.8
20260507201827 71 278 3.0 6.0 0.00 0.00 0.00 37 1012.8
20260507201323 72 175 3.0 5.0 0.00 0.00 0.00 34 1012.8
20260507200819 70 42 0.0 1.0 0.00 0.00 0.00 37 1012.6
20260507200315 69 238 3.0 3.0 0.00 0.00 0.00 37 1012.8
20260507195811 69 59 3.0 3.0 0.00 0.00 0.00 39 1013.0
20260507195309 70 63 3.0 3.0 0.00 0.00 0.00 38 1012.8
20260507194806 71 71 1.0 1.0 0.00 0.00 0.00 39 1013.0
20260507194302 70 65 0.0 1.0 0.00 0.00 0.00 41 1012.9
20260507193759 69 68 3.0 5.0 0.00 0.00 0.00 40 1013.0
20260507193256 70 67 4.0 6.0 0.00 0.00 0.00 40 1013.1
20260507192751 68 81 3.0 5.0 0.00 0.00 0.00 39 1013.2
20260507192249 70 68 0.0 0.0 0.00 0.00 0.00 38 1013.1
20260507191745 71 74 2.0 2.0 0.00 0.00 0.00 37 1013.3
20260507191242 71 64 1.0 2.0 0.00 0.00 0.00 39 1013.2
20260507190738 70 71 1.0 2.0 0.00 0.00 0.00 39 1013.2
20260507190237 69 113 1.0 1.0 0.00 0.00 0.00 39 1013.3
20260507185735 69 31 1.0 1.0 0.00 0.00 0.00 41 1013.1
20260507185231 69 95 1.0 2.0 0.00 0.00 0.00 41 1013.2
20260507184729 71 57 1.0 1.0 0.00 0.00 0.00 41 1013.1
20260507184227 70 59 0.0 0.0 0.00 0.00 0.00 38 1013.0
20260507183723 69 54 3.0 5.0 0.00 0.00 0.00 40 1013.2
20260507183220 70 59 3.0 5.0 0.00 0.00 0.00 39 1013.2
20260507182717 71 128 3.0 3.0 0.00 0.00 0.00 40 1013.0
20260507182207 69 68 1.0 1.0 0.00 0.00 0.00 39 1013.3
20260507181704 67 243 3.0 3.0 0.00 0.00 0.00 41 1013.3
20260507181200 67 60 5.0 7.0 0.00 0.00 0.00 45 1013.3
20260507180651 68 45 1.0 1.0 0.00 0.00 0.00 40 1013.3
20260507180148 68 63 2.0 3.0 0.00 0.00 0.00 42 1013.3
20260507175643 66 133 2.0 3.0 0.00 0.00 0.00 42 1013.4
20260507175141 67 72 4.0 5.0 0.00 0.00 0.00 42 1013.4
20260507174638 68 60 4.0 5.0 0.00 0.00 0.00 44 1013.6
20260507174136 67 51 2.0 2.0 0.00 0.00 0.00 42 1013.6
20260507173633 68 40 5.0 6.0 0.00 0.00 0.00 41 1013.7
20260507173130 66 47 1.0 1.0 0.00 0.00 0.00 44 1013.7
20260507172626 65 43 3.0 5.0 0.00 0.00 0.00 43 1014.1
20260507172124 66 49 4.0 5.0 0.00 0.00 0.00 43 1013.9
20260507171618 66 96 2.0 3.0 0.00 0.00 0.00 43 1014.1
20260507171116 65 168 4.0 5.0 0.00 0.00 0.00 43 1014.0
20260507170613 65 65 1.0 1.0 0.00 0.00 0.00 45 1014.0
20260507170110 64 72 1.0 1.0 0.00 0.00 0.00 47 1014.1
20260507165605 65 67 5.0 6.0 0.00 0.00 0.00 48 1014.0
20260507165102 64 47 0.0 1.0 0.00 0.00 0.00 45 1014.2
20260507164558 64 40 2.0 2.0 0.00 0.00 0.00 48 1014.0
20260507164055 62 42 2.0 3.0 0.00 0.00 0.00 51 1014.1
20260507163552 63 54 3.0 5.0 0.00 0.00 0.00 49 1014.2
20260507163045 62 44 4.0 5.0 0.00 0.00 0.00 52 1014.1
20260507162544 63 60 0.0 0.0 0.00 0.00 0.00 60 1014.1
20260507162041 62 43 4.0 5.0 0.00 0.00 0.00 59 1014.0
20260507161539 61 42 3.0 3.0 0.00 0.00 0.00 60 1014.3
20260507161029 62 46 3.0 3.0 0.00 0.00 0.00 59 1014.2
20260507160525 61 81 1.0 1.0 0.00 0.00 0.00 61 1014.3
20260507160022 61 127 1.0 2.0 0.00 0.00 0.00 62 1014.1
20260507155517 61 92 1.0 2.0 0.00 0.00 0.00 62 1014.2
20260507155014 60 55 0.0 0.0 0.00 0.00 0.00 66 1014.1
20260507154511 59 63 0.0 0.0 0.00 0.00 0.00 64 1014.3
20260507154009 58 58 0.0 0.0 0.00 0.00 0.00 67 1014.3
20260507153505 58 63 2.0 2.0 0.00 0.00 0.00 69 1014.2
20260507153001 59 245 3.0 3.0 0.00 0.00 0.00 68 1014.2
20260507152457 60 27 2.0 2.0 0.00 0.00 0.00 65 1014.4
20260507151954 59 47 2.0 2.0 0.00 0.00 0.00 68 1014.2
20260507151450 58 77 2.0 2.0 0.00 0.00 0.00 69 1014.1
20260507150947 56 60 0.0 0.0 0.00 0.00 0.00 70 1014.4
20260507150443 55 82 3.0 3.0 0.00 0.00 0.00 74 1014.4
20260507145940 55 59 1.0 2.0 0.00 0.00 0.00 73 1014.4
20260507145436 54 68 1.0 1.0 0.00 0.00 0.00 74 1014.3
20260507144933 54 63 0.0 0.0 0.00 0.00 0.00 75 1014.2
20260507144430 53 67 0.0 1.0 0.00 0.00 0.00 76 1014.2
20260507143927 53 263 2.0 2.0 0.00 0.00 0.00 74 1013.9
20260507143424 53 62 0.0 0.0 0.00 0.00 0.00 76 1014.2
20260507142921 52 112 3.0 3.0 0.00 0.00 0.00 77 1013.9
20260507142416 52 58 1.0 1.0 0.00 0.00 0.00 78 1014.1
20260507141914 52 60 0.0 0.0 0.00 0.00 0.00 77 1014.2
20260507141410 52 129 3.0 5.0 0.00 0.00 0.00 78 1013.7
20260507140907 51 59 0.0 0.0 0.00 0.00 0.00 79 1013.5
20260507140403 50 57 2.0 2.0 0.00 0.00 0.00 78 1013.4
20260507135901 51 59 1.0 1.0 0.00 0.00 0.00 79 1013.6
20260507135358 50 50 3.0 3.0 0.00 0.00 0.00 79 1013.4
20260507134855 49 61 3.0 3.0 0.00 0.00 0.00 81 1013.3
20260507134351 49 55 1.0 1.0 0.00 0.00 0.00 81 1013.3
20260507133847 49 61 1.0 1.0 0.00 0.00 0.00 80 1013.4
20260507133343 48 62 1.0 1.0 0.00 0.00 0.00 81 1013.3
20260507132842 49 58 1.0 1.0 0.00 0.00 0.00 81 1013.3
20260507132338 48 60 1.0 1.0 0.00 0.00 0.00 81 1013.1
20260507131835 47 64 0.0 0.0 0.00 0.00 0.00 82 1013.2
20260507131332 48 59 0.0 1.0 0.00 0.00 0.00 81 1013.1
20260507130829 47 53 1.0 1.0 0.00 0.00 0.00 82 1013.2
20260507130326 47 61 0.0 0.0 0.00 0.00 0.00 83 1013.1
20260507125825 47 60 0.0 1.0 0.00 0.00 0.00 82 1013.1
20260507125321 47 60 0.0 0.0 0.00 0.00 0.00 83 1013.1
20260507124819 46 60 0.0 0.0 0.00 0.00 0.00 84 1013.0
20260507124315 46 61 0.0 0.0 0.00 0.00 0.00 84 1013.1
20260507123814 46 61 0.0 0.0 0.00 0.00 0.00 84 1013.0
20260507123311 46 61 0.0 0.0 0.00 0.00 0.00 84 1013.0
20260507122806 45 48 1.0 1.0 0.00 0.00 0.00 85 1013.0
20260507122256 45 65 0.0 0.0 0.00 0.00 0.00 85 1012.9
20260507121752 45 62 0.0 0.0 0.00 0.00 0.00 83 1013.0
20260507121248 47 60 0.0 0.0 0.00 0.00 0.00 81 1012.8
20260507120744 48 64 0.0 0.0 0.00 0.00 0.00 80 1012.6
20260507120241 48 74 1.0 1.0 0.00 0.00 0.00 80 1012.6
20260507115737 48 76 1.0 1.0 0.00 0.00 0.00 79 1012.5
20260507115233 48 3 2.0 2.0 0.00 0.00 0.00 80 1012.8
20260507114729 48 63 0.0 0.0 0.00 0.00 0.00 80 1012.6
20260507114227 49 63 0.0 0.0 0.00 0.00 0.00 78 1012.5
20260507113724 49 67 0.0 0.0 0.00 0.00 0.00 77 1012.5
20260507113221 49 54 1.0 1.0 0.00 0.00 0.00 77 1012.6
20260507112718 48 64 1.0 1.0 0.00 0.00 0.00 78 1012.4
20260507112216 49 61 0.0 0.0 0.00 0.00 0.00 76 1012.6
20260507111713 49 64 0.0 0.0 0.00 0.00 0.00 76 1012.4
20260507111210 49 63 0.0 0.0 0.00 0.00 0.00 76 1012.3
20260507110705 50 64 0.0 0.0 0.00 0.00 0.00 74 1012.3
20260507110202 51 66 1.0 1.0 0.00 0.00 0.00 72 1012.3
20260507105659 49 58 1.0 1.0 0.00 0.00 0.00 76 1012.2
20260507105155 48 62 0.0 0.0 0.00 0.00 0.00 78 1012.2
20260507104653 48 65 0.0 1.0 0.00 0.00 0.00 80 1012.3
20260507104149 48 62 0.0 1.0 0.00 0.00 0.00 78 1012.2
20260507103645 47 69 0.0 0.0 0.00 0.00 0.00 80 1011.9
20260507103142 48 61 0.0 1.0 0.00 0.00 0.00 78 1011.9
20260507102638 48 66 0.0 0.0 0.00 0.00 0.00 79 1012.1
20260507102134 49 65 0.0 0.0 0.00 0.00 0.00 77 1011.8
20260507101630 50 52 1.0 1.0 0.00 0.00 0.00 77 1011.8
20260507101126 50 45 2.0 2.0 0.00 0.00 0.00 76 1011.8
20260507100624 50 64 0.0 0.0 0.00 0.00 0.00 76 1011.9
20260507100122 50 63 0.0 0.0 0.00 0.00 0.00 75 1011.5
20260507095620 50 59 0.0 0.0 0.00 0.00 0.00 76 1011.8
20260507095116 49 62 1.0 1.0 0.00 0.00 0.00 78 1011.4
20260507094612 48 63 0.0 0.0 0.00 0.00 0.00 80 1011.7
20260507094109 50 62 0.0 0.0 0.00 0.00 0.00 77 1011.4
20260507093607 50 64 0.0 0.0 0.00 0.00 0.00 77 1011.7
20260507093106 49 62 1.0 1.0 0.00 0.00 0.00 78 1011.5
20260507092601 50 61 0.0 1.0 0.00 0.00 0.00 75 1011.3
20260507092058 50 63 0.0 1.0 0.00 0.00 0.00 77 1011.2
20260507091555 50 67 0.0 0.0 0.00 0.00 0.00 77 1011.3
20260507091051 50 64 0.0 0.0 0.00 0.00 0.00 77 1011.4
20260507090546 50 60 0.0 1.0 0.00 0.00 0.00 77 1011.3
20260507090038 51 60 0.0 0.0 0.00 0.00 0.00 76 1011.2
20260507085535 52 63 0.0 0.0 0.00 0.00 0.00 73 1011.3
20260507085032 53 64 0.0 0.0 0.00 0.00 0.00 71 1011.2
20260507084528 53 64 0.0 0.0 0.00 0.00 0.00 71 1011.3
20260507084026 53 63 0.0 0.0 0.00 0.00 0.00 71 1011.1
20260507083521 53 62 0.0 0.0 0.00 0.00 0.00 70 1011.2
20260507083019 54 61 0.0 0.0 0.00 0.00 0.00 69 1011.4
20260507082515 54 65 0.0 0.0 0.00 0.00 0.00 69 1011.4
20260507082011 54 64 0.0 0.0 0.00 0.00 0.00 69 1011.7
20260507081508 55 83 0.0 1.0 0.00 0.00 0.00 68 1011.4
20260507081005 55 62 0.0 0.0 0.00 0.00 0.00 67 1011.4
20260507080500 56 77 1.0 1.0 0.00 0.00 0.00 65 1011.7
20260507075956 56 64 0.0 0.0 0.00 0.00 0.00 64 1011.7
20260507075452 57 63 0.0 0.0 0.00 0.00 0.00 63 1011.4
20260507074949 57 68 1.0 1.0 0.00 0.00 0.00 62 1011.3
20260507074446 57 62 0.0 0.0 0.00 0.00 0.00 63 1011.2
20260507073944 57 63 0.0 0.0 0.00 0.00 0.00 63 1011.4
20260507073440 57 65 0.0 0.0 0.00 0.00 0.00 61 1011.3
20260507072936 57 64 0.0 1.0 0.00 0.00 0.00 62 1011.2
20260507072433 57 63 0.0 0.0 0.00 0.00 0.00 62 1011.3
20260507071926 58 67 0.0 0.0 0.00 0.00 0.00 61 1011.2
20260507071422 59 62 0.0 0.0 0.00 0.00 0.00 58 1011.4
20260507070918 60 53 0.0 1.0 0.00 0.00 0.00 56 1011.3
20260507070416 60 69 2.0 2.0 0.00 0.00 0.00 55 1011.2
20260507065913 60 49 2.0 3.0 0.00 0.00 0.00 54 1011.1
20260507065409 60 67 1.0 1.0 0.00 0.00 0.00 54 1011.3
20260507064906 61 67 0.0 0.0 0.00 0.00 0.00 53 1011.1
20260507064404 61 61 1.0 1.0 0.00 0.00 0.00 52 1011.1
20260507063857 62 63 0.0 0.0 0.00 0.00 0.00 52 1011.2
20260507063354 62 64 1.0 1.0 0.00 0.00 0.00 51 1011.1
20260507062850 64 65 1.0 1.0 0.00 0.00 0.00 48 1011.1
20260507062347 64 74 1.0 2.0 0.00 0.00 0.00 47 1011.3
20260507061845 64 63 2.0 2.0 0.00 0.00 0.00 47 1011.0
20260507061343 64 197 2.0 2.0 0.00 0.00 0.00 48 1011.1
20260507060841 64 247 4.0 6.0 0.00 0.00 0.00 48 1011.1
20260507060338 65 123 3.0 3.0 0.00 0.00 0.00 47 1011.2
20260507055835 64 38 3.0 5.0 0.00 0.00 0.00 46 1011.2
20260507055329 64 227 5.0 9.0 0.00 0.00 0.00 46 1011.1
20260507054826 64 59 0.0 1.0 0.00 0.00 0.00 46 1011.2
20260507054322 64 244 4.0 5.0 0.00 0.00 0.00 47 1011.3
20260507053820 64 241 4.0 5.0 0.00 0.00 0.00 45 1011.2
20260507053317 65 245 5.0 6.0 0.00 0.00 0.00 45 1011.2
20260507052816 64 222 3.0 5.0 0.00 0.00 0.00 45 1011.2
20260507052312 63 232 4.0 6.0 0.00 0.00 0.00 45 1011.3
20260507051810 63 59 1.0 2.0 0.00 0.00 0.00 47 1010.9
20260507051307 63 231 3.0 5.0 0.00 0.00 0.00 48 1011.0
20260507050804 63 27 2.0 2.0 0.00 0.00 0.00 48 1011.2
20260507050300 64 106 2.0 2.0 0.00 0.00 0.00 48 1011.2
20260507045757 63 78 1.0 2.0 0.00 0.00 0.00 48 1011.1
20260507045253 63 65 1.0 1.0 0.00 0.00 0.00 47 1011.1
20260507044751 63 58 2.0 2.0 0.00 0.00 0.00 49 1011.1
20260507044247 66 261 3.0 5.0 0.00 0.00 0.00 40 1010.9
20260507043743 66 248 4.0 6.0 0.00 0.00 0.00 39 1011.0
20260507043240 66 72 3.0 3.0 0.00 0.00 0.00 42 1011.1
20260507042736 66 38 3.0 3.0 0.00 0.00 0.00 41 1011.0
20260507042231 65 227 4.0 5.0 0.00 0.00 0.00 40 1010.9
20260507041730 65 78 0.0 1.0 0.00 0.00 0.00 42 1011.1
20260507041226 65 65 2.0 3.0 0.00 0.00 0.00 41 1011.0
20260507040723 63 231 3.0 5.0 0.00 0.00 0.00 43 1011.1
20260507040219 64 62 0.0 0.0 0.00 0.00 0.00 46 1010.9
20260507035715 62 75 1.0 2.0 0.00 0.00 0.00 47 1010.8
20260507035211 61 75 1.0 1.0 0.00 0.00 0.00 49 1010.9
20260507034708 59 65 0.0 0.0 0.00 0.00 0.00 58 1010.8
20260507034205 59 67 1.0 1.0 0.00 0.00 0.00 62 1011.0
20260507033704 58 61 0.0 0.0 0.00 0.00 0.00 64 1010.6
20260507033200 59 65 0.0 0.0 0.00 0.00 0.00 64 1010.7
20260507032658 59 62 0.0 0.0 0.00 0.00 0.00 64 1010.6
20260507032153 60 65 0.0 0.0 0.00 0.00 0.00 62 1010.6
20260507031650 61 64 0.0 0.0 0.00 0.00 0.00 60 1010.6
20260507031147 61 64 0.0 0.0 0.00 0.00 0.00 58 1010.7
20260507030644 63 65 0.0 0.0 0.00 0.00 0.00 54 1010.6
20260507030142 63 70 0.0 0.0 0.00 0.00 0.00 53 1010.2
20260507025639 64 63 1.0 1.0 0.00 0.00 0.00 53 1010.2
20260507025136 66 58 1.0 1.0 0.00 0.00 0.00 48 1010.4
20260507024633 67 231 3.0 5.0 0.00 0.00 0.00 41 1010.3
20260507024130 66 161 4.0 8.0 0.00 0.00 0.00 42 1010.0
20260507023626 66 137 3.0 3.0 0.00 0.00 0.00 43 1010.2
20260507023124 66 102 1.0 1.0 0.00 0.00 0.00 43 1010.2
20260507022620 64 71 1.0 1.0 0.00 0.00 0.00 50 1010.1
20260507022115 65 63 0.0 0.0 0.00 0.00 0.00 53 1009.9
20260507021612 64 70 1.0 1.0 0.00 0.00 0.00 53 1010.1
20260507021108 64 71 0.0 0.0 0.00 0.00 0.00 56 1010.3
20260507020607 64 53 0.0 1.0 0.00 0.00 0.00 59 1010.0
20260507015601 65 61 0.0 1.0 0.00 0.00 0.00 57 1010.2
20260507015058 65 26 0.0 1.0 0.00 0.00 0.00 56 1010.4
20260507014555 66 67 1.0 1.0 0.00 0.00 0.00 51 1010.4
20260507014051 66 67 0.0 0.0 0.00 0.00 0.00 51 1010.2
20260507013548 66 65 0.0 0.0 0.00 0.00 0.00 56 1010.2
20260507013045 66 64 0.0 0.0 0.00 0.00 0.00 52 1010.2
20260507012543 66 65 0.0 0.0 0.00 0.00 0.00 53 1010.1
20260507012038 66 64 0.0 0.0 0.00 0.00 0.00 56 1010.3
20260507011536 66 64 0.0 0.0 0.00 0.00 0.00 56 1010.2
20260507011031 66 67 0.0 1.0 0.00 0.00 0.00 59 1010.3
20260507010526 65 67 0.0 0.0 0.00 0.00 0.00 58 1010.2
20260507010023 65 65 0.0 0.0 0.00 0.00 0.00 61 1010.3
20260507005520 65 64 0.0 0.0 0.00 0.00 0.00 61 1010.3
20260507005016 65 46 1.0 2.0 0.00 0.00 0.00 60 1010.3
20260507004513 65 65 0.0 0.0 0.00 0.00 0.00 60 1010.2
20260507004011 65 70 0.0 1.0 0.00 0.00 0.00 60 1010.6
20260507003506 66 76 0.0 1.0 0.00 0.00 0.00 56 1010.3
20260507003001 67 65 0.0 0.0 0.00 0.00 0.00 55 1010.1
20260507002458 67 66 1.0 1.0 0.00 0.00 0.00 53 1010.4
20260507001955 68 67 1.0 1.0 0.00 0.00 0.00 49 1010.6
20260507001452 69 72 1.0 1.0 0.00 0.00 0.00 47 1010.7
20260507000949 69 64 1.0 1.0 0.00 0.00 0.00 45 1010.6
20260507000445 70 62 2.0 2.0 0.00 0.00 0.00 42 1010.6
20260506235940 71 320 2.0 2.0 0.00 0.00 0.00 38 1010.3
20260506235438 71 229 3.0 5.0 0.00 0.00 0.00 38 1010.6
20260506234933 71 53 2.0 2.0 0.00 0.00 0.00 38 1010.4
20260506234432 70 236 5.0 7.0 0.00 0.00 0.00 35 1010.4
20260506233929 69 254 3.0 6.0 0.00 0.00 0.00 42 1010.6
20260506233425 70 170 2.0 3.0 0.00 0.00 0.00 41 1010.8
20260506232922 70 60 0.0 0.0 0.00 0.00 0.00 43 1010.6
20260506232418 70 53 1.0 1.0 0.00 0.00 0.00 41 1010.8
20260506231914 70 63 0.0 0.0 0.00 0.00 0.00 44 1010.7
20260506231412 69 58 0.0 1.0 0.00 0.00 0.00 42 1010.7
20260506230909 69 193 4.0 5.0 0.00 0.00 0.00 43 1011.0
20260506230405 69 94 3.0 3.0 0.00 0.00 0.00 40 1011.1
20260506225902 69 60 3.0 3.0 0.00 0.00 0.00 37 1011.0
20260506225359 70 60 0.0 1.0 0.00 0.00 0.00 38 1010.8
20260506224856 71 64 0.0 0.0 0.00 0.00 0.00 37 1010.9
20260506224354 71 62 1.0 2.0 0.00 0.00 0.00 36 1010.7
20260506223849 72 63 1.0 1.0 0.00 0.00 0.00 37 1010.8
20260506223345 72 64 3.0 3.0 0.00 0.00 0.00 33 1010.8
20260506222842 71 64 0.0 0.0 0.00 0.00 0.00 35 1010.7
20260506222338 72 63 0.0 1.0 0.00 0.00 0.00 35 1011.0
20260506221836 72 62 0.0 0.0 0.00 0.00 0.00 34 1011.1
20260506221333 72 45 1.0 2.0 0.00 0.00 0.00 34 1011.1
20260506220831 71 113 3.0 3.0 0.00 0.00 0.00 36 1011.3
20260506220326 72 70 1.0 1.0 0.00 0.00 0.00 36 1011.5
20260506215823 72 154 2.0 2.0 0.00 0.00 0.00 34 1011.4
20260506215319 71 59 1.0 1.0 0.00 0.00 0.00 35 1011.9
20260506214815 71 61 1.0 1.0 0.00 0.00 0.00 35 1011.5
20260506214311 72 49 2.0 2.0 0.00 0.00 0.00 32 1011.8
20260506213810 73 47 2.0 3.0 0.00 0.00 0.00 34 1011.5
20260506213307 73 58 1.0 1.0 0.00 0.00 0.00 36 1012.1